Theta_e
316 318 320 322 330 330 327 323 327 325 327 324 325 328 332 332 336 339 344 347 346 346 348 346 347 345 345 345 342 341 341 341 344 344 344 344 340 342 344 344 339 342 343 339 341 341 339 340 341
316 319 319 319 326 324 316 321 322 323 321 318 321 325 326 326 326 343 344 347 346 347 348 346 346 348 347 346 341 343 344 342 343 343 343 343 343 342 344 342 337 343 342 337 339 339 338 337 331
314 316 314 319 320 317 319 317 316 317 315 316 321 319 322 326 328 342 345 347 346 347 348 346 346 347 347 343 342 344 345 344 343 344 342 342 344 341 343 340 338 341 340 339 338 336 334 327 329
312 313 313 320 320 318 318 316 314 315 315 317 319 319 320 321 328 338 346 347 345 345 347 345 345 346 347 345 342 342 344 344 343 343 341 343 343 339 342 338 338 338 336 333 332 332 329 325 329
313 311 314 317 316 315 313 313 311 312 314 315 318 318 319 320 338 344 348 347 344 344 344 345 344 346 347 345 342 341 343 344 343 342 342 342 342 339 342 337 335 335 331 323 320 318 318 327 329
310 310 313 313 313 312 309 309 310 311 311 312 316 320 320 320 323 336 338 344 345 342 343 343 344 340 345 346 343 341 343 343 343 342 341 342 340 339 341 338 334 331 327 321 317 315 325 328 329
311 309 310 311 312 310 310 308 308 308 308 310 314 318 318 319 325 329 331 331 345 345 343 344 343 339 342 345 344 343 343 343 343 342 340 342 339 339 340 336 333 330 331 318 316 317 325 328 329
313 313 314 311 310 311 309 309 308 308 308 308 314 320 318 327 321 320 323 324 328 345 344 343 343 340 339 343 342 342 343 343 343 342 340 342 338 337 337 336 334 333 331 320 319 320 323 328 328
314 315 316 314 312 312 310 311 310 310 312 313 315 316 316 318 317 320 321 325 327 343 344 344 342 341 336 340 343 341 342 342 342 341 340 341 336 334 335 334 334 334 330 320 322 323 323 326 329
315 316 314 312 311 311 311 311 311 316 315 315 314 315 316 316 318 324 324 326 327 328 343 343 343 343 336 339 341 341 342 342 342 341 340 338 335 334 333 333 335 333 330 325 324 325 324 325 329
313 314 312 313 311 311 311 312 313 316 316 315 315 312 314 316 320 323 327 328 324 327 343 342 342 342 340 341 341 342 342 342 342 341 339 336 334 333 333 333 336 333 331 327 325 324 324 324 327
315 313 313 311 311 311 311 311 313 315 315 313 314 315 315 316 317 321 324 324 323 323 324 341 341 341 342 340 341 342 342 341 340 338 337 334 332 333 332 332 335 334 332 328 325 324 324 324 325
315 314 315 314 313 312 312 312 312 314 314 314 314 314 314 316 317 319 319 323 322 324 324 340 340 340 341 338 340 339 340 339 337 336 336 333 331 332 332 331 333 333 330 327 326 325 327 326 327
315 316 316 316 316 314 314 314 315 315 314 315 314 314 314 315 316 319 322 323 324 323 331 340 341 341 339 337 337 339 338 337 335 335 334 333 331 332 332 332 331 330 328 327 326 323 325 326 326
315 318 316 316 316 317 315 317 317 315 315 315 315 315 314 314 316 320 324 326 324 330 330 340 340 341 339 337 338 337 337 336 335 335 334 333 331 332 332 332 332 331 329 327 327 327 327 326 325
317 316 316 316 316 317 316 320 317 314 315 316 316 315 315 316 320 322 324 326 328 330 330 335 338 340 340 339 337 336 337 336 334 333 332 333 331 332 332 333 332 331 330 331 329 329 326 324 322
316 318 317 319 317 318 318 319 317 315 316 318 318 321 318 319 322 324 327 328 326 326 323 329 334 339 340 340 339 338 337 335 334 332 331 332 332 332 333 333 331 331 331 331 330 328 323 322 324
318 319 319 319 318 320 320 319 317 316 316 316 316 321 325 324 326 324 325 327 325 324 324 327 329 334 336 339 338 338 336 334 334 331 331 332 333 333 333 332 330 331 331 325 324 324 326 327 328
317 319 318 317 320 321 321 320 318 318 316 315 318 323 325 326 328 325 326 325 325 325 325 327 329 330 331 332 335 332 334 331 328 330 331 331 332 334 331 331 332 330 328 325 323 327 328 329 330
318 319 316 319 320 319 320 319 318 320 315 317 321 322 324 330 329 327 325 325 325 326 325 326 329 329 331 330 331 333 330 331 328 329 330 332 333 332 331 332 329 327 325 325 326 328 329 329 331
314 316 317 316 314 314 318 318 319 319 322 322 321 323 326 329 329 327 326 326 325 325 326 327 328 329 332 329 329 330 330 329 328 329 331 331 331 330 330 329 326 325 326 327 328 330 330 330 331
313 315 314 314 315 316 316 322 317 316 320 324 322 326 329 330 328 328 327 327 328 326 327 330 328 330 332 331 329 329 330 330 330 328 329 329 330 329 328 326 327 328 330 331 332 331 331 330 331
312 312 313 313 314 314 316 323 317 314 321 321 320 321 329 329 330 330 328 329 330 329 328 328 329 330 331 331 331 330 330 330 330 329 328 327 327 327 326 333 333 331 332 333 333 333 333 332 331
310 313 312 313 314 319 315 324 316 314 323 321 318 318 328 329 328 329 329 329 328 328 327 326 329 330 331 331 331 330 330 330 330 330 329 329 327 328 329 334 336 335 333 334 334 334 333 332 331
311 309 312 310 310 323 314 317 317 313 320 321 317 318 317 325 328 328 329 327 327 326 325 325 326 328 331 331 331 330 329 328 328 328 330 331 332 331 331 333 335 335 335 334 333 332 330 329 328
310 313 315 316 314 320 314 318 316 311 314 316 317 317 316 316 326 326 326 326 324 325 326 325 325 327 328 329 329 329 328 327 327 327 328 331 332 334 334 335 335 334 332 331 328 328 328 327 327
311 311 313 319 320 310 317 313 311 310 310 312 315 317 315 315 314 321 323 325 325 324 325 326 324 325 326 327 326 327 325 323 324 322 324 326 327 329 330 329 330 330 331 328 327 327 327 328 328
309 309 310 309 309 317 317 317 319 314 310 309 310 311 313 314 313 311 310 313 323 325 326 325 324 324 325 327 325 326 326 326 326 326 326 326 327 328 328 327 328 328 328 327 327 326 326 328 329
305 306 307 306 311 307 307 319 314 312 310 309 309 308 308 311 312 312 312 312 310 314 320 325 326 325 325 325 325 324 325 324 324 325 325 326 326 326 326 326 325 325 325 326 327 327 326 326 326
303 304 304 303 307 309 305 316 311 309 310 308 308 308 307 307 307 310 311 312 312 313 315 317 325 327 325 325 323 324 323 324 324 325 326 325 325 325 326 325 325 325 326 328 327 326 325 325 325
Wind_Speed
2 3 2 2 3 5 5 6 4 3 4 5 7 6 8 11 5 5 7 18 21 43 45 42 40 40 39 36 35 32 31 29 28 28 27 25 25 24 22 24 26 22 22 21 21 22 23 22 21
2 3 3 2 4 5 5 7 11 4 4 8 4 15 18 18 6 2 13 14 25 37 44 42 40 39 39 38 36 33 31 29 27 27 27 27 27 25 23 28 28 22 24 24 21 21 22 22 21
3 2 3 4 4 11 4 3 4 7 8 4 5 4 4 5 10 7 7 24 32 37 37 40 41 39 39 40 38 37 34 31 30 29 28 28 28 25 25 27 28 25 24 23 19 23 23 22 21
5 5 3 2 16 9 4 4 6 7 8 5 3 8 6 2 15 13 20 31 39 41 36 39 40 40 39 39 39 37 35 33 31 30 29 29 28 27 25 27 29 25 22 23 20 21 23 22 20
2 3 0 6 13 5 5 10 9 12 6 9 3 8 9 16 20 15 22 35 43 41 41 39 39 40 38 39 39 38 37 35 32 31 30 29 29 29 29 27 26 23 22 23 21 20 22 22 18
3 3 2 6 14 9 7 1 6 10 10 15 6 6 6 9 16 17 13 7 40 46 43 42 39 42 40 38 39 38 38 36 33 32 31 30 30 30 29 27 25 23 22 22 22 22 22 20 18
4 3 4 6 13 9 4 3 3 8 10 16 4 14 7 6 12 13 19 21 14 32 44 39 39 40 40 38 38 38 38 36 34 33 33 32 31 30 29 27 25 23 21 21 23 22 21 19 18
2 2 4 5 10 15 8 3 3 6 8 7 8 7 11 2 17 22 24 30 30 27 35 43 39 39 41 39 37 38 37 37 35 34 33 35 32 31 28 26 24 22 20 20 21 22 21 19 16
2 3 8 12 12 14 14 9 12 6 11 10 7 15 14 16 22 21 25 21 24 22 32 38 44 39 42 39 38 38 37 37 36 35 35 36 33 30 29 25 24 23 20 20 20 20 20 19 17
4 5 15 10 14 14 17 11 11 4 9 14 12 12 22 21 16 9 11 14 15 25 36 38 39 40 43 41 37 37 38 36 38 38 37 34 34 31 29 27 25 23 21 20 19 18 18 18 18
5 12 13 16 14 12 16 15 5 8 17 17 20 16 12 9 12 11 10 7 11 26 38 42 39 37 40 38 41 38 38 38 39 40 38 35 34 31 28 28 26 24 21 20 20 19 18 18 16
7 13 15 18 15 11 15 12 15 12 26 18 15 12 9 9 11 12 12 11 15 27 43 32 40 37 36 36 35 35 35 39 35 35 38 40 33 32 31 30 27 26 23 21 19 18 17 16 14
14 16 15 18 18 19 16 20 19 21 21 18 16 20 18 13 15 19 16 13 16 16 32 37 42 39 35 36 34 34 36 38 31 37 41 41 36 32 34 31 28 26 24 21 20 18 16 13 12
4 8 14 14 16 13 16 20 5 24 19 18 18 22 24 18 16 18 18 13 12 22 21 40 39 39 38 35 34 35 36 39 34 37 41 40 37 32 32 32 29 26 24 21 18 18 15 12 12
8 12 15 16 13 9 7 16 19 28 18 20 20 21 23 21 21 18 18 10 8 8 10 41 38 40 43 36 35 34 38 38 37 38 40 42 39 39 34 32 30 27 24 20 18 17 14 12 13
4 3 4 4 0 5 9 21 19 14 14 19 23 23 25 20 19 22 21 17 10 7 12 24 32 38 39 39 38 36 35 38 39 39 40 41 40 41 37 33 30 27 24 22 19 17 15 14 13
3 5 7 9 6 8 10 14 17 7 8 11 15 18 15 20 15 18 25 27 19 8 11 13 28 37 35 36 34 36 35 36 40 39 36 39 39 40 39 36 30 27 27 23 21 19 18 15 15
4 8 7 11 7 10 15 23 25 17 12 19 17 14 10 15 18 16 22 23 15 8 11 13 6 32 29 39 31 34 35 32 37 39 36 39 39 38 37 35 33 30 27 23 22 19 17 16 13
6 8 11 12 11 8 9 18 20 19 16 16 13 8 7 11 8 22 17 22 19 12 8 13 10 18 23 26 36 27 30 31 30 37 37 40 40 37 33 34 32 30 29 27 23 20 17 15 13
11 8 12 8 12 6 13 13 12 15 5 9 3 10 9 7 9 14 18 16 23 21 11 12 26 15 25 28 26 35 31 32 35 35 37 41 38 37 35 34 33 31 27 26 24 22 19 13 12
5 5 5 10 12 5 4 4 19 23 10 9 7 10 10 15 15 14 13 18 21 22 15 21 26 26 27 31 28 28 30 26 26 32 39 39 36 35 35 33 32 30 28 28 25 22 21 14 12
4 3 7 10 8 3 3 3 17 19 23 20 18 16 7 13 12 12 12 11 8 17 20 12 25 33 27 33 32 37 31 30 25 33 39 37 36 34 34 32 32 31 29 27 26 24 21 21 15
6 8 6 7 5 3 4 3 11 15 17 15 20 15 5 6 14 11 9 15 13 17 18 10 18 23 33 34 28 28 28 28 31 29 29 36 34 34 34 30 31 34 31 28 27 26 27 24 19
7 3 3 1 1 3 9 3 7 15 16 18 23 21 12 2 5 11 11 16 14 16 14 10 9 26 30 36 34 29 24 24 26 31 31 31 35 36 37 32 31 30 32 31 27 24 22 22 20
8 4 3 4 4 3 5 7 5 16 15 14 15 19 18 13 7 8 10 7 12 10 9 6 5 10 30 29 37 36 33 31 25 31 33 30 32 36 37 37 33 30 28 24 19 20 21 20 18
5 3 2 2 1 2 6 4 7 13 10 12 12 16 15 16 10 7 4 5 10 9 9 7 2 10 21 26 22 30 33 31 27 23 29 36 39 39 40 36 31 31 28 22 21 21 21 19 18
7 4 1 2 3 5 4 6 2 17 15 8 12 17 15 11 10 8 7 4 12 12 11 7 3 3 4 18 23 25 26 27 25 24 24 27 30 32 28 30 31 29 26 24 19 20 20 20 20
4 4 3 3 3 4 2 3 4 13 13 14 14 13 15 14 14 10 6 7 4 6 4 11 12 8 10 7 24 21 19 18 27 32 33 30 27 23 22 22 21 19 19 19 20 19 18 18 20
6 5 4 3 2 3 2 3 8 10 11 11 13 12 13 14 13 11 8 13 11 8 5 5 13 15 15 16 16 13 14 11 10 13 16 16 17 21 19 21 22 23 24 21 21 21 18 15 14
4 4 2 3 5 3 3 2 6 8 10 11 12 13 13 13 12 11 11 16 17 18 19 10 4 17 22 25 25 21 15 14 13 16 18 20 27 27 26 26 26 25 23 22 22 21 20 17 21
Wind_Direction
176 174 171 80 172 235 239 250 222 47 156 213 246 218 203 223 192 214 322 158 178 166 171 176 170 166 165 162 162 160 158 158 155 151 145 144 141 141 137 136 133 132 125 122 124 118 118 112 109
85 100 78 99 209 228 247 205 260 262 18 345 297 239 255 265 259 66 131 192 179 166 170 174 171 167 165 163 163 161 159 159 158 156 151 151 147 143 139 136 135 131 126 127 128 125 126 118 112
62 23 92 140 218 225 216 81 32 268 340 339 329 346 316 260 358 216 197 179 173 166 172 173 173 170 167 166 166 163 162 160 161 159 158 156 152 147 145 142 140 139 136 128 129 133 129 121 111
12 27 28 242 236 248 185 253 25 0 338 73 340 289 310 124 334 301 195 175 169 168 173 175 174 172 171 169 168 166 165 163 164 164 161 159 152 148 149 149 151 149 142 134 136 138 137 129 122
70 64 261 249 261 254 284 312 320 308 299 285 14 282 291 312 14 27 178 173 169 172 175 177 176 174 173 172 171 169 166 167 168 167 164 162 154 153 154 157 156 150 148 143 142 144 142 135 124
44 100 192 247 258 289 269 150 301 292 287 279 291 281 252 288 342 357 5 238 176 173 177 177 179 178 175 175 173 172 170 171 171 169 166 163 157 159 158 157 156 152 148 145 143 142 142 136 125
127 102 231 274 274 278 276 34 200 263 258 277 259 264 260 329 3 327 334 345 220 174 171 173 177 179 176 177 175 174 173 174 174 170 166 162 162 160 156 157 155 154 151 147 144 144 145 140 131
150 105 263 232 270 283 269 254 214 244 272 244 186 246 252 148 326 325 302 320 330 185 173 172 176 180 177 178 176 177 177 175 174 170 167 162 163 162 159 159 159 158 156 150 147 145 147 147 138
60 227 245 252 259 273 290 287 286 248 259 275 224 249 266 301 306 319 320 302 302 203 183 174 175 180 179 177 179 178 179 176 173 170 167 163 162 164 164 163 163 164 159 154 150 146 145 150 143
184 230 247 243 243 262 274 258 270 268 271 266 260 267 272 279 280 275 257 280 311 314 188 179 175 177 178 173 179 180 179 178 172 170 169 168 163 163 163 164 166 165 163 159 155 150 149 152 151
191 238 245 255 257 246 258 266 244 247 261 239 257 258 255 243 245 258 262 258 286 326 184 176 175 177 174 172 174 178 175 174 171 170 170 167 162 160 165 164 167 167 168 162 159 157 156 157 162
227 239 241 260 250 258 259 268 257 234 251 257 250 247 248 252 244 230 235 251 304 313 325 177 178 177 173 169 170 171 169 170 168 168 174 164 161 166 169 170 169 171 172 168 163 160 157 158 165
225 245 251 254 260 256 263 260 259 262 259 255 258 276 271 250 250 237 228 257 293 284 287 192 177 174 172 165 171 167 166 168 165 171 173 168 164 170 174 175 177 178 176 174 169 169 171 175 178
254 262 262 264 257 254 251 260 218 260 256 255 255 254 260 248 248 243 207 203 260 296 272 176 173 170 168 168 171 166 167 167 168 170 174 174 168 172 176 179 180 180 180 177 177 177 182 187 190
250 269 275 263 249 240 218 264 238 255 266 258 255 250 256 247 238 228 222 170 188 234 212 167 171 168 167 170 168 172 170 169 170 176 177 178 175 176 174 183 180 181 182 179 177 179 192 197 197
242 230 302 308 251 247 119 271 264 247 236 253 249 251 249 244 217 201 194 154 155 197 270 144 161 170 167 167 170 171 172 174 174 176 179 181 185 180 181 181 185 184 184 183 185 192 198 203 208
274 279 281 300 225 236 187 268 269 255 225 246 259 255 234 239 219 187 167 152 148 186 327 288 159 166 167 167 166 170 173 175 176 178 178 184 188 185 186 190 187 185 185 191 192 197 201 201 201
261 286 283 300 316 281 241 251 269 269 260 271 270 245 221 227 205 176 178 163 160 221 317 285 204 160 170 169 168 174 175 174 179 180 180 188 188 188 192 198 189 186 190 190 193 194 191 195 202
248 265 272 290 289 306 255 254 270 288 259 263 258 256 226 237 166 152 147 147 168 180 180 232 197 171 173 171 167 170 174 173 175 178 184 189 190 189 189 184 186 189 190 192 192 191 195 195 198
261 253 284 289 274 252 271 275 327 315 271 264 211 250 207 182 114 111 131 146 166 171 182 215 213 206 194 185 174 174 176 173 177 183 187 187 186 185 187 186 187 190 195 193 191 193 189 190 183
290 252 327 310 320 299 307 292 6 357 10 355 313 300 182 148 155 146 146 162 179 144 162 204 210 214 200 179 174 163 167 164 170 176 177 181 182 186 189 192 192 194 194 193 194 193 196 177 179
302 268 339 319 347 311 1 295 6 355 10 8 7 354 127 147 142 148 163 159 156 142 192 212 202 204 189 178 167 166 168 170 178 170 179 183 189 192 195 194 195 196 196 194 193 196 198 195 173
262 283 272 279 295 322 355 65 350 357 26 2 9 355 9 153 133 146 152 147 142 155 183 178 200 205 197 186 176 168 164 169 175 182 184 185 191 196 195 197 201 201 197 198 197 198 203 199 183
316 263 306 229 131 52 6 41 351 359 4 14 5 5 12 288 116 129 115 105 126 166 185 207 194 202 204 199 184 176 173 169 174 183 184 186 194 197 196 199 199 199 200 196 197 201 204 197 190
357 33 7 19 33 83 344 58 22 352 360 11 6 354 12 351 88 91 98 133 128 167 200 220 257 252 176 171 179 178 180 185 196 198 185 183 192 197 200 203 203 202 203 207 203 204 198 203 198
311 17 81 101 103 81 26 42 27 4 15 359 13 10 11 15 36 74 40 74 123 172 202 201 192 29 138 158 162 171 178 188 192 217 201 192 195 195 196 199 201 202 205 200 200 204 208 211 214
321 32 21 31 3 64 18 15 343 358 9 355 359 29 5 28 37 25 2 54 181 183 203 201 211 104 136 181 168 167 184 200 197 211 210 225 213 208 203 207 208 206 204 194 201 208 217 226 229
72 302 48 5 71 71 36 37 16 354 1 16 14 14 11 19 37 38 22 355 278 266 236 219 214 204 194 146 172 181 181 169 189 202 203 213 211 203 197 199 213 220 218 214 222 225 230 233 242
358 11 21 100 34 126 133 56 13 358 3 6 13 18 17 17 16 27 26 25 27 18 251 230 218 212 203 189 174 185 197 216 210 199 209 211 223 226 230 226 222 228 229 227 223 220 222 247 259
90 357 69 93 316 30 126 70 14 350 26 20 8 11 20 24 20 18 22 28 33 36 52 51 234 209 209 207 207 217 215 223 233 241 239 237 234 233 231 218 217 226 223 215 215 219 228 246 253